This is the latest recevied weather packets stored in our database for station/object K5IDL. If no packets are shown the sender has not sent any weather packets the latest 10 day(s).
| Time | Temp. | Humidity | Pressure | Rain* | Wind** | Luminosity | Snow |
|---|---|---|---|---|---|---|---|
| 1777463991 | 15.56° C | 79% | 1015.2 hPa | 0 mm | - | 3 W/m² | - |
| 1777463686 | 15.56° C | 79% | 1015.1 hPa | 0 mm | - | 2 W/m² | - |
| 1777463381 | 15.56° C | 78% | 1015 hPa | 0 mm | - | 1 W/m² | - |
| 1777463078 | 15.56° C | 78% | 1015.1 hPa | 0 mm | - | 1 W/m² | - |
| 1777462773 | 15.56° C | 77% | 1015 hPa | 0 mm | - | 0 W/m² | - |
| 1777462468 | 16.11° C | 77% | 1014.8 hPa | 0 mm | - | 0 W/m² | - |
| 1777462165 | 16.11° C | 77% | 1015.1 hPa | 0 mm | - | 0 W/m² | - |
| 1777461862 | 16.11° C | 80% | 1015.1 hPa | 0 mm | - | 0 W/m² | - |
| 1777461559 | 16.11° C | 76% | 1015.2 hPa | 0 mm | - | 0 W/m² | - |
| 1777461254 | 16.11° C | 76% | 1014.8 hPa | 0 mm | - | 0 W/m² | - |
| 1777460950 | 16.11° C | 75% | 1014.6 hPa | 0 mm | - | 0 W/m² | - |
| 1777460645 | 16.67° C | 76% | 1014.6 hPa | 0 mm | - | 0 W/m² | - |
| 1777460341 | 16.67° C | 75% | 1014.5 hPa | 0 mm | - | 0 W/m² | - |
| 1777460037 | 16.67° C | 75% | 1014.9 hPa | 0 mm | - | 0 W/m² | - |
| 1777459735 | 16.67° C | 76% | 1014.9 hPa | 0 mm | - | 0 W/m² | - |
| 1777459431 | 16.67° C | 75% | 1014.9 hPa | 0 mm | - | 0 W/m² | - |
| 1777459129 | 16.67° C | 73% | 1014.7 hPa | 0 mm | - | 0 W/m² | - |
| 1777458826 | 16.67° C | 72% | 1014.5 hPa | 0 mm | - | 0 W/m² | - |
| 1777458523 | 16.67° C | 73% | 1014.5 hPa | 0 mm | - | 0 W/m² | - |
| 1777458220 | 17.22° C | 73% | 1014.5 hPa | 0 mm | - | 0 W/m² | - |
| 1777457915 | 17.22° C | 73% | 1014.9 hPa | 0 mm | - | 0 W/m² | - |
| 1777457611 | 17.22° C | 73% | 1014.7 hPa | 0 mm | - | 0 W/m² | - |
| 1777457311 | 17.22° C | 72% | 1014.5 hPa | 0 mm | - | 0 W/m² | - |
| 1777457007 | 17.22° C | 72% | 1014.5 hPa | 0 mm | - | 0 W/m² | - |
| 1777456703 | 17.22° C | 72% | 1014.5 hPa | 0 mm | - | 0 W/m² | - |
* Rain latest hour (hover to see other rain measurements)
** Current wind speed in m/s (hover to see current wind gust speed)